Location: Miss�
(46.9484°N, 0.1922°W)
Time: 10:31:38
(UTC+00:00)

Cosmos 2322 Rocket - Pass Details

Date: 02 March 2021
Orbit: 832 x 852 km, 71.0° (Epoch: 10 April)

Event Time Altitude Azimuth Distance (km) Brightness Sun altitude
Rises 19:21:15 0° 213° (SSW) 3,364 5.7 -16.7°
Reaches altitude 10° 19:23:42 10° 216° (SW) 2,434 4.9 -17.1°
Maximum altitude 19:29:15 68° 299° (WNW) 900 2.5 -18.0°
Drops below altitude 10° 19:34:52 10° 23° (NNE) 2,456 4.5 -19.0°
Sets 19:37:20 0° 26° (NNE) 3,397 5.2 -19.4°
